| time (UTC) | temp F | wind direction | speed knots | gust knots | rain 1hr in | rain 24hr in | rain mn in | humidity % | barometer mb |
| 20260504110439 | 51 | 208 | 9.6 | 11.3 | 0.00 | 0.00 | 0.00 | 70 | 1006.0 |
| 20260504100355 | 50 | 218 | 8.7 | 9.6 | 0.00 | 0.00 | 0.00 | 70 | 1005.6 |
| 20260504081748 | 52 | 215 | 10.4 | 12.2 | 0.00 | 0.00 | 0.00 | 64 | 1006.4 |
| 20260504081245 | 51 | 222 | 11.3 | 13.0 | 0.00 | 0.00 | 0.00 | 66 | 1006.4 |
| 20260504080742 | 52 | 204 | 13.0 | 14.8 | 0.00 | 0.00 | 0.00 | 65 | 1006.3 |
| 20260504080238 | 52 | 225 | 12.2 | 14.8 | 0.00 | 0.00 | 0.00 | 63 | 1006.5 |
| 20260504070206 | 51 | 205 | 13.0 | 14.8 | 0.00 | 0.00 | 0.00 | 65 | 1007.1 |
| 20260504060126 | 51 | 212 | 12.2 | 13.9 | 0.00 | 0.00 | 0.00 | 64 | 1007.9 |
| 20260504050554 | 51 | 225 | 10.4 | 12.2 | 0.00 | 0.00 | 0.00 | 65 | 1008.7 |
| 20260504045548 | 52 | 191 | 11.3 | 13.0 | 0.00 | 0.00 | 0.00 | 63 | 1008.8 |
| 20260504045043 | 52 | 188 | 12.2 | 13.9 | 0.00 | 0.00 | 0.00 | 63 | 1008.8 |
| 20260504044541 | 52 | 210 | 13.0 | 13.9 | 0.00 | 0.00 | 0.00 | 63 | 1008.7 |
| 20260504044038 | 52 | 200 | 12.2 | 13.9 | 0.00 | 0.00 | 0.00 | 64 | 1008.5 |
| 20260504043535 | 52 | 194 | 11.3 | 13.0 | 0.00 | 0.00 | 0.00 | 63 | 1008.8 |
| 20260504043032 | 52 | 200 | 10.4 | 13.0 | 0.00 | 0.00 | 0.00 | 64 | 1009.0 |
| 20260504042529 | 52 | 203 | 12.2 | 13.9 | 0.00 | 0.00 | 0.00 | 64 | 1009.0 |
| 20260504042026 | 52 | 204 | 12.2 | 13.0 | 0.00 | 0.00 | 0.00 | 64 | 1009.0 |
| 20260504041522 | 52 | 189 | 12.2 | 13.9 | 0.00 | 0.00 | 0.00 | 63 | 1009.1 |
| 20260504041018 | 52 | 195 | 11.3 | 12.2 | 0.00 | 0.00 | 0.00 | 64 | 1009.2 |
| 20260504040516 | 52 | 217 | 10.4 | 12.2 | 0.00 | 0.00 | 0.00 | 65 | 1009.2 |
| 20260504040013 | 52 | 208 | 11.3 | 13.0 | 0.00 | 0.00 | 0.00 | 64 | 1009.3 |
| 20260504035509 | 52 | 210 | 11.3 | 13.0 | 0.00 | 0.00 | 0.00 | 65 | 1009.3 |
| 20260504035005 | 52 | 198 | 11.3 | 12.2 | 0.00 | 0.00 | 0.00 | 65 | 1009.4 |
| 20260504034503 | 51 | 176 | 11.3 | 13.0 | 0.00 | 0.00 | 0.00 | 66 | 1009.5 |
| 20260504034000 | 51 | 212 | 10.4 | 12.2 | 0.00 | 0.00 | 0.00 | 66 | 1009.5 |
| 20260504033458 | 51 | 188 | 14.8 | 18.2 | 0.00 | 0.00 | 0.00 | 66 | 1009.5 |
| 20260504032955 | 51 | 205 | 9.6 | 9.6 | 0.00 | 0.00 | 0.00 | 67 | 1009.4 |
| 20260504032452 | 51 | 201 | 12.2 | 13.0 | 0.00 | 0.00 | 0.00 | 67 | 1009.4 |
| 20260504031948 | 51 | 184 | 13.9 | 14.8 | 0.00 | 0.00 | 0.00 | 67 | 1009.5 |
| 20260504031445 | 51 | 198 | 14.8 | 15.6 | 0.00 | 0.00 | 0.00 | 67 | 1009.5 |
| 20260504030942 | 51 | 192 | 15.6 | 19.1 | 0.00 | 0.00 | 0.00 | 67 | 1009.6 |
| 20260504030439 | 51 | 191 | 14.8 | 17.4 | 0.00 | 0.00 | 0.00 | 68 | 1009.7 |
| 20260504025935 | 51 | 195 | 12.2 | 15.6 | 0.00 | 0.00 | 0.00 | 68 | 1009.7 |
| 20260504025432 | 51 | 193 | 11.3 | 12.2 | 0.00 | 0.00 | 0.00 | 68 | 1009.8 |
| 20260504024929 | 51 | 177 | 11.3 | 13.0 | 0.00 | 0.00 | 0.00 | 69 | 1009.6 |
| 20260504024426 | 51 | 196 | 11.3 | 13.9 | 0.00 | 0.00 | 0.00 | 68 | 1010.1 |
| 20260504023923 | 51 | 217 | 11.3 | 13.0 | 0.00 | 0.00 | 0.00 | 66 | 1010.1 |
| 20260504023420 | 51 | 209 | 9.6 | 9.6 | 0.00 | 0.00 | 0.00 | 68 | 1010.1 |
| 20260504022915 | 51 | 194 | 11.3 | 13.0 | 0.00 | 0.00 | 0.00 | 67 | 1010.1 |
| 20260504022412 | 51 | 210 | 7.8 | 8.7 | 0.00 | 0.00 | 0.00 | 68 | 1009.9 |
| 20260504021909 | 51 | 196 | 9.6 | 11.3 | 0.00 | 0.00 | 0.00 | 67 | 1010.2 |
| 20260504021406 | 51 | 211 | 9.6 | 11.3 | 0.00 | 0.00 | 0.00 | 67 | 1010.0 |
| 20260504020903 | 51 | 200 | 8.7 | 9.6 | 0.00 | 0.00 | 0.00 | 68 | 1009.9 |
| 20260504020359 | 51 | 192 | 9.6 | 11.3 | 0.00 | 0.00 | 0.00 | 67 | 1010.1 |
| 20260504015855 | 52 | 208 | 9.6 | 9.6 | 0.00 | 0.00 | 0.00 | 66 | 1010.1 |
| 20260504015352 | 51 | 221 | 8.7 | 9.6 | 0.00 | 0.00 | 0.00 | 67 | 1010.1 |
| 20260504014848 | 52 | 208 | 8.7 | 8.7 | 0.00 | 0.00 | 0.00 | 66 | 1010.3 |
| 20260504014344 | 52 | 201 | 10.4 | 11.3 | 0.00 | 0.00 | 0.00 | 66 | 1010.2 |
| 20260504013842 | 52 | 201 | 8.7 | 11.3 | 0.00 | 0.00 | 0.00 | 67 | 1010.1 |
| 20260504013340 | 52 | 207 | 7.0 | 7.8 | 0.00 | 0.00 | 0.00 | 67 | 1010.2 |
| 20260504012836 | 52 | 199 | 7.8 | 9.6 | 0.00 | 0.00 | 0.00 | 67 | 1010.3 |
| 20260504012334 | 52 | 220 | 8.7 | 9.6 | 0.00 | 0.00 | 0.00 | 67 | 1010.1 |
| 20260504011831 | 52 | 210 | 8.7 | 9.6 | 0.00 | 0.00 | 0.00 | 66 | 1010.0 |
| 20260504011327 | 52 | 205 | 8.7 | 9.6 | 0.00 | 0.00 | 0.00 | 66 | 1010.4 |
| 20260504010823 | 52 | 205 | 8.7 | 9.6 | 0.00 | 0.00 | 0.00 | 66 | 1010.3 |
| 20260504010319 | 52 | 208 | 8.7 | 9.6 | 0.00 | 0.00 | 0.00 | 66 | 1010.2 |
| 20260504005816 | 52 | 210 | 7.8 | 8.7 | 0.00 | 0.00 | 0.00 | 67 | 1010.3 |
| 20260504005313 | 52 | 220 | 10.4 | 11.3 | 0.00 | 0.00 | 0.00 | 66 | 1010.4 |
| 20260504004811 | 52 | 224 | 10.4 | 13.0 | 0.00 | 0.00 | 0.00 | 65 | 1010.2 |
| 20260504004308 | 52 | 224 | 10.4 | 12.2 | 0.00 | 0.00 | 0.00 | 65 | 1010.4 |
| 20260504003804 | 53 | 215 | 13.0 | 13.9 | 0.00 | 0.00 | 0.00 | 64 | 1010.3 |
| 20260504003301 | 53 | 211 | 11.3 | 12.2 | 0.00 | 0.00 | 0.00 | 64 | 1010.4 |
| 20260504002757 | 53 | 215 | 11.3 | 12.2 | 0.00 | 0.00 | 0.00 | 62 | 1010.5 |
| 20260504002255 | 53 | 206 | 12.2 | 13.9 | 0.00 | 0.00 | 0.00 | 62 | 1010.5 |
| 20260504001752 | 53 | 217 | 9.6 | 11.3 | 0.00 | 0.00 | 0.00 | 63 | 1010.7 |
| 20260504001249 | 53 | 206 | 14.8 | 14.8 | 0.00 | 0.00 | 0.00 | 62 | 1010.5 |
| 20260504000746 | 53 | 221 | 14.8 | 17.4 | 0.00 | 0.00 | 0.00 | 62 | 1010.6 |
| 20260504000243 | 53 | 229 | 14.8 | 17.4 | 0.00 | 0.00 | 0.00 | 62 | 1010.8 |
| 20260503235741 | 54 | 227 | 16.5 | 18.2 | 0.00 | 0.00 | 0.00 | 61 | 1010.6 |
| 20260503235238 | 54 | 236 | 16.5 | 18.2 | 0.00 | 0.00 | 0.00 | 61 | 1010.6 |
| 20260503234736 | 54 | 222 | 16.5 | 18.2 | 0.00 | 0.00 | 0.00 | 61 | 1010.6 |
| 20260503234234 | 54 | 238 | 18.2 | 20.0 | 0.00 | 0.00 | 0.00 | 60 | 1010.8 |
| 20260503233730 | 54 | 230 | 19.1 | 21.7 | 0.00 | 0.00 | 0.00 | 61 | 1010.8 |
| 20260503233225 | 55 | 232 | 20.9 | 23.5 | 0.00 | 0.00 | 0.00 | 59 | 1010.7 |
| 20260503232717 | 55 | 227 | 24.3 | 26.1 | 0.00 | 0.00 | 0.00 | 58 | 1010.6 |
| 20260503232214 | 55 | 212 | 23.5 | 26.1 | 0.00 | 0.00 | 0.00 | 57 | 1010.6 |
| 20260503231713 | 57 | 216 | 20.0 | 23.5 | 0.00 | 0.00 | 0.00 | 56 | 1010.6 |
| 20260503231209 | 57 | 227 | 18.2 | 20.0 | 0.00 | 0.00 | 0.00 | 53 | 1010.4 |
| 20260503230705 | 57 | 238 | 24.3 | 26.9 | 0.00 | 0.00 | 0.00 | 52 | 1010.3 |
| 20260503230203 | 58 | 226 | 22.6 | 25.2 | 0.00 | 0.00 | 0.00 | 51 | 1010.2 |
| 20260503225659 | 59 | 244 | 21.7 | 22.6 | 0.00 | 0.00 | 0.00 | 49 | 1010.1 |
| 20260503225154 | 59 | 224 | 23.5 | 26.1 | 0.00 | 0.00 | 0.00 | 48 | 1010.3 |
| 20260503224652 | 59 | 234 | 23.5 | 26.1 | 0.00 | 0.00 | 0.00 | 47 | 1010.3 |
| 20260503224149 | 60 | 219 | 20.0 | 21.7 | 0.00 | 0.00 | 0.00 | 44 | 1010.2 |
| 20260503223647 | 61 | 208 | 20.0 | 21.7 | 0.00 | 0.00 | 0.00 | 37 | 1010.1 |
| 20260503223143 | 60 | 228 | 21.7 | 23.5 | 0.00 | 0.00 | 0.00 | 36 | 1010.1 |
| 20260503222641 | 60 | 217 | 20.9 | 23.5 | 0.00 | 0.00 | 0.00 | 37 | 1010.3 |
| 20260503222138 | 60 | 239 | 20.0 | 20.9 | 0.00 | 0.00 | 0.00 | 38 | 1010.3 |
| 20260503221637 | 61 | 230 | 29.5 | 33.0 | 0.00 | 0.00 | 0.00 | 36 | 1010.0 |
| 20260503221134 | 61 | 221 | 23.5 | 25.2 | 0.00 | 0.00 | 0.00 | 36 | 1010.3 |
| 20260503220630 | 62 | 230 | 23.5 | 26.9 | 0.00 | 0.00 | 0.00 | 36 | 1010.1 |
| 20260503220127 | 61 | 216 | 14.8 | 17.4 | 0.00 | 0.00 | 0.00 | 38 | 1010.1 |
| 20260503215624 | 61 | 225 | 17.4 | 20.0 | 0.00 | 0.00 | 0.00 | 38 | 1010.3 |
| 20260503215120 | 62 | 231 | 24.3 | 26.9 | 0.00 | 0.00 | 0.00 | 36 | 1010.1 |
| 20260503214619 | 62 | 224 | 20.0 | 22.6 | 0.00 | 0.00 | 0.00 | 37 | 1010.2 |
| 20260503214114 | 63 | 235 | 22.6 | 26.1 | 0.00 | 0.00 | 0.00 | 35 | 1010.3 |
| 20260503213609 | 62 | 222 | 20.9 | 22.6 | 0.00 | 0.00 | 0.00 | 35 | 1010.2 |
| 20260503213104 | 62 | 224 | 22.6 | 23.5 | 0.00 | 0.00 | 0.00 | 35 | 1010.4 |
| 20260503212602 | 62 | 193 | 17.4 | 20.0 | 0.00 | 0.00 | 0.00 | 36 | 1010.5 |
| 20260503212059 | 62 | 242 | 19.1 | 20.9 | 0.00 | 0.00 | 0.00 | 34 | 1010.2 |
| 20260503211556 | 63 | 233 | 25.2 | 26.9 | 0.00 | 0.00 | 0.00 | 33 | 1010.4 |
| 20260503211052 | 62 | 227 | 22.6 | 26.1 | 0.00 | 0.00 | 0.00 | 34 | 1010.5 |
| 20260503210549 | 63 | 224 | 26.1 | 27.8 | 0.00 | 0.00 | 0.00 | 33 | 1010.3 |
| 20260503210044 | 62 | 218 | 20.9 | 21.7 | 0.00 | 0.00 | 0.00 | 33 | 1010.5 |
| 20260503205542 | 63 | 222 | 20.9 | 22.6 | 0.00 | 0.00 | 0.00 | 33 | 1010.6 |
| 20260503205038 | 62 | 209 | 24.3 | 29.5 | 0.00 | 0.00 | 0.00 | 34 | 1010.3 |
| 20260503204535 | 63 | 235 | 25.2 | 32.2 | 0.00 | 0.00 | 0.00 | 34 | 1010.4 |
| 20260503204032 | 63 | 211 | 26.9 | 28.7 | 0.00 | 0.00 | 0.00 | 34 | 1010.3 |
| 20260503203529 | 63 | 216 | 26.1 | 27.8 | 0.00 | 0.00 | 0.00 | 34 | 1010.6 |
| 20260503203026 | 63 | 216 | 22.6 | 26.9 | 0.00 | 0.00 | 0.00 | 35 | 1010.5 |
| 20260503202524 | 63 | 210 | 24.3 | 27.8 | 0.00 | 0.00 | 0.00 | 32 | 1010.7 |
| 20260503202022 | 63 | 225 | 20.9 | 22.6 | 0.00 | 0.00 | 0.00 | 33 | 1010.8 |
| 20260503201520 | 63 | 226 | 26.1 | 28.7 | 0.00 | 0.00 | 0.00 | 33 | 1010.9 |
| 20260503201017 | 63 | 215 | 19.1 | 22.6 | 0.00 | 0.00 | 0.00 | 35 | 1010.6 |
| 20260503200513 | 63 | 218 | 20.0 | 20.9 | 0.00 | 0.00 | 0.00 | 35 | 1011.1 |
| 20260503200010 | 62 | 232 | 16.5 | 19.1 | 0.00 | 0.00 | 0.00 | 36 | 1011.0 |
| 20260503195507 | 63 | 242 | 22.6 | 27.8 | 0.00 | 0.00 | 0.00 | 33 | 1011.1 |
| 20260503195003 | 63 | 221 | 21.7 | 22.6 | 0.00 | 0.00 | 0.00 | 35 | 1011.0 |
| 20260503194501 | 63 | 217 | 20.9 | 22.6 | 0.00 | 0.00 | 0.00 | 36 | 1011.2 |
| 20260503193955 | 63 | 219 | 23.5 | 26.1 | 0.00 | 0.00 | 0.00 | 32 | 1011.2 |
| 20260503193451 | 63 | 215 | 20.9 | 23.5 | 0.00 | 0.00 | 0.00 | 35 | 1011.1 |
| 20260503192947 | 63 | 210 | 20.9 | 21.7 | 0.00 | 0.00 | 0.00 | 36 | 1011.1 |
| 20260503192444 | 62 | 217 | 20.9 | 23.5 | 0.00 | 0.00 | 0.00 | 36 | 1011.3 |
| 20260503191939 | 63 | 220 | 22.6 | 25.2 | 0.00 | 0.00 | 0.00 | 36 | 1011.2 |
| 20260503191437 | 62 | 212 | 24.3 | 27.8 | 0.00 | 0.00 | 0.00 | 34 | 1011.5 |
| 20260503190933 | 63 | 211 | 22.6 | 25.2 | 0.00 | 0.00 | 0.00 | 37 | 1011.5 |
| 20260503190431 | 63 | 225 | 25.2 | 28.7 | 0.00 | 0.00 | 0.00 | 34 | 1011.4 |
| 20260503185927 | 63 | 223 | 21.7 | 26.1 | 0.00 | 0.00 | 0.00 | 33 | 1011.6 |
| 20260503185424 | 62 | 228 | 20.0 | 22.6 | 0.00 | 0.00 | 0.00 | 34 | 1011.8 |
| 20260503184923 | 63 | 245 | 23.5 | 26.9 | 0.00 | 0.00 | 0.00 | 34 | 1011.7 |
| 20260503184420 | 63 | 207 | 13.0 | 15.6 | 0.00 | 0.00 | 0.00 | 32 | 1011.7 |
| 20260503183916 | 63 | 253 | 20.9 | 26.9 | 0.00 | 0.00 | 0.00 | 32 | 1012.0 |
| 20260503183413 | 63 | 227 | 20.0 | 21.7 | 0.00 | 0.00 | 0.00 | 35 | 1012.1 |
| 20260503182910 | 63 | 218 | 21.7 | 22.6 | 0.00 | 0.00 | 0.00 | 35 | 1011.9 |
| 20260503182409 | 62 | 222 | 24.3 | 26.1 | 0.00 | 0.00 | 0.00 | 35 | 1011.8 |
| 20260503181906 | 62 | 232 | 22.6 | 25.2 | 0.00 | 0.00 | 0.00 | 33 | 1012.0 |
| 20260503181403 | 62 | 231 | 20.9 | 21.7 | 0.00 | 0.00 | 0.00 | 32 | 1012.4 |
| 20260503180859 | 62 | 223 | 20.9 | 22.6 | 0.00 | 0.00 | 0.00 | 35 | 1012.0 |
| 20260503180357 | 62 | 227 | 18.2 | 20.9 | 0.00 | 0.00 | 0.00 | 34 | 1012.1 |
| 20260503175853 | 62 | 209 | 20.9 | 23.5 | 0.00 | 0.00 | 0.00 | 35 | 1012.2 |
| 20260503175352 | 61 | 230 | 21.7 | 23.5 | 0.00 | 0.00 | 0.00 | 35 | 1012.5 |
| 20260503174847 | 62 | 235 | 20.9 | 22.6 | 0.00 | 0.00 | 0.00 | 35 | 1012.6 |
| 20260503174345 | 62 | 264 | 20.0 | 22.6 | 0.00 | 0.00 | 0.00 | 35 | 1012.7 |
| 20260503173840 | 62 | 230 | 20.9 | 23.5 | 0.00 | 0.00 | 0.00 | 38 | 1012.6 |
| 20260503173336 | 62 | 241 | 22.6 | 25.2 | 0.00 | 0.00 | 0.00 | 34 | 1012.6 |
| 20260503172833 | 62 | 224 | 17.4 | 20.0 | 0.00 | 0.00 | 0.00 | 37 | 1012.7 |
| 20260503172331 | 61 | 253 | 19.1 | 20.9 | 0.00 | 0.00 | 0.00 | 32 | 1012.9 |
| 20260503171826 | 61 | 231 | 16.5 | 19.1 | 0.00 | 0.00 | 0.00 | 38 | 1012.8 |
| 20260503171324 | 61 | 216 | 23.5 | 27.8 | 0.00 | 0.00 | 0.00 | 36 | 1013.1 |
| 20260503170821 | 62 | 228 | 19.1 | 20.9 | 0.00 | 0.00 | 0.00 | 38 | 1013.0 |
| 20260503170317 | 60 | 212 | 20.0 | 21.7 | 0.00 | 0.00 | 0.00 | 39 | 1013.0 |
| 20260503150710 | 55 | 237 | 15.6 | 17.4 | 0.00 | 0.00 | 0.00 | 48 | 1014.3 |
| 20260503150206 | 55 | 216 | 13.0 | 14.8 | 0.00 | 0.00 | 0.00 | 52 | 1014.5 |
| 20260503140125 | 50 | 235 | 19.1 | 21.7 | 0.00 | 0.00 | 0.00 | 56 | 1014.8 |
| 20260503131054 | 48 | 230 | 14.8 | 15.6 | 0.00 | 0.00 | 0.00 | 57 | 1014.6 |
| 20260503130551 | 48 | 232 | 14.8 | 15.6 | 0.00 | 0.00 | 0.00 | 59 | 1014.9 |